Вернуться в каталог

ATLAS 5 CENTAUR DEB

АктивенHEO
NORAD 43965·DEBRIS·🇺🇸 United States

Запущен Sep 17, 2014 с Cape Canaveral Space Force Station

Loading…

Ближайшие Пролёты (ближайшие 24 часа)

TLE

СвежийSource: Space-Track

Эпоха: Sep 10, 2026, 09:15 UTC

1 43965U 14055U   26253.38577907 -.00000131  00000-0  00000+0 0  9991
2 43965  20.7682 116.1801 4845884 218.3979  94.5575  1.89965974 55656

Отслеживайте ATLAS 5 CENTAUR DEB в реальном времени с AllMySat

Download on the App Store